Time,TemperatureF,DewpointF,PressureIn,WindDirection,WindDirectionDegrees,WindSpeedMPH,WindSpeedGustMPH,Humidity,HourlyPrecipIn,Conditions,Clouds,dailyrainin,SoftwareType,DateUTC
2013-03-04 00:00:00,27.6,14.8,30.05,West,265,0.0,12.0,58,0.00,,,0.00,VWS V14.01,2013-03-04 05:00:00,
2013-03-04 00:01:00,27.6,14.8,30.05,West,265,0.0,12.0,58,0.00,,,0.00,VWS V14.01,2013-03-04 05:01:00,
2013-03-04 00:02:00,27.6,14.8,30.05,West,265,1.0,12.0,58,0.00,,,0.00,VWS V14.01,2013-03-04 05:02:00,
2013-03-04 00:07:00,27.6,14.4,30.05,West,276,3.0,12.0,57,0.00,,,0.00,VWS V14.01,2013-03-04 05:07:00,
2013-03-04 00:12:00,27.6,14.4,30.05,West,275,1.0,12.0,57,0.00,,,0.00,VWS V14.01,2013-03-04 05:12:00,
2013-03-04 00:17:00,27.6,14.4,30.05,West,267,0.0,12.0,57,0.00,,,0.00,VWS V14.01,2013-03-04 05:17:00,
2013-03-04 00:22:00,27.5,14.7,30.05,South,190,0.0,12.0,58,0.00,,,0.00,VWS V14.01,2013-03-04 05:22:00,
2013-03-04 00:27:00,27.5,14.7,30.05,SW,229,0.0,12.0,58,0.00,,,0.00,VWS V14.01,2013-03-04 05:27:00,
2013-03-04 00:32:00,27.5,14.7,30.05,WSW,257,2.0,12.0,58,0.00,,,0.00,VWS V14.01,2013-03-04 05:32:00,
2013-03-04 00:37:00,27.5,14.7,30.05,WSW,255,2.0,12.0,58,0.00,,,0.00,VWS V14.01,2013-03-04 05:37:00,
2013-03-04 00:42:00,27.3,14.5,30.05,SW,225,0.0,12.0,58,0.00,,,0.00,VWS V14.01,2013-03-04 05:42:00,
2013-03-04 00:47:00,27.3,14.9,30.05,SW,225,0.0,12.0,59,0.00,,,0.00,VWS V14.01,2013-03-04 05:47:00,
2013-03-04 00:52:00,27.3,14.5,30.06,WSW,258,2.0,12.0,58,0.00,,,0.00,VWS V14.01,2013-03-04 05:52:00,
2013-03-04 00:57:00,27.3,14.9,30.06,WSW,257,2.0,12.0,59,0.00,,,0.00,VWS V14.01,2013-03-04 05:57:00,
2013-03-04 01:02:00,27.3,14.9,30.06,SW,225,0.0,12.0,59,0.00,,,0.00,VWS V14.01,2013-03-04 06:02:00,
2013-03-04 01:08:00,27.3,14.9,30.06,WNW,286,0.0,12.0,59,0.00,,,0.00,VWS V14.01,2013-03-04 06:08:00,
2013-03-04 01:13:00,27.3,14.5,30.06,SW,233,1.0,12.0,58,0.00,,,0.00,VWS V14.01,2013-03-04 06:13:00,
2013-03-04 01:18:00,27.3,14.5,30.06,West,263,0.0,12.0,58,0.00,,,0.00,VWS V14.01,2013-03-04 06:18:00,
2013-03-04 01:23:00,27.3,14.9,30.06,SW,217,1.0,12.0,59,0.00,,,0.00,VWS V14.01,2013-03-04 06:23:00,
2013-03-04 01:28:00,27.3,14.9,30.06,SSW,207,2.0,12.0,59,0.00,,,0.00,VWS V14.01,2013-03-04 06:28:00,
2013-03-04 01:33:00,27.2,15.2,30.07,WSW,246,1.0,12.0,60,0.00,,,0.00,VWS V14.01,2013-03-04 06:33:00,
2013-03-04 01:38:00,27.3,15.3,30.07,NW,306,0.0,12.0,60,0.00,,,0.00,VWS V14.01,2013-03-04 06:38:00,
2013-03-04 01:43:00,27.3,15.3,30.07,NW,306,0.0,12.0,60,0.00,,,0.00,VWS V14.01,2013-03-04 06:43:00,
2013-03-04 01:48:00,27.3,15.6,30.07,NW,305,0.0,12.0,61,0.00,,,0.00,VWS V14.01,2013-03-04 06:48:00,
2013-03-04 01:53:00,27.5,15.8,30.07,NW,305,0.0,12.0,61,0.00,,,0.00,VWS V14.01,2013-03-04 06:53:00,
2013-03-04 01:58:00,27.5,15.8,30.07,SW,229,1.0,12.0,61,0.00,,,0.00,VWS V14.01,2013-03-04 06:58:00,
2013-03-04 02:03:00,27.5,16.2,30.07,WSW,248,0.0,12.0,62,0.00,,,0.00,VWS V14.01,2013-03-04 07:03:00,
2013-03-04 02:08:00,27.5,15.8,30.07,West,277,0.0,12.0,61,0.00,,,0.00,VWS V14.01,2013-03-04 07:08:00,
2013-03-04 02:13:00,27.3,16.0,30.07,WSW,255,1.0,12.0,62,0.00,,,0.00,VWS V14.01,2013-03-04 07:13:00,
2013-03-04 02:18:00,27.2,15.9,30.07,SW,227,0.0,12.0,62,0.00,,,0.00,VWS V14.01,2013-03-04 07:18:00,
2013-03-04 02:23:00,27.2,16.3,30.07,SW,227,0.0,12.0,63,0.00,,,0.00,VWS V14.01,2013-03-04 07:23:00,
2013-03-04 02:28:00,27.2,16.3,30.07,SW,227,1.0,12.0,63,0.00,,,0.00,VWS V14.01,2013-03-04 07:28:00,
2013-03-04 02:33:00,27.0,16.1,30.07,WSW,247,2.0,12.0,63,0.00,,,0.00,VWS V14.01,2013-03-04 07:33:00,
2013-03-04 02:38:00,27.0,16.1,30.07,West,269,1.0,12.0,63,0.00,,,0.00,VWS V14.01,2013-03-04 07:38:00,
2013-03-04 02:43:00,26.9,16.4,30.07,West,275,0.0,12.0,64,0.00,,,0.00,VWS V14.01,2013-03-04 07:43:00,
2013-03-04 02:48:00,26.9,16.4,30.07,West,275,0.0,12.0,64,0.00,,,0.00,VWS V14.01,2013-03-04 07:48:00,
2013-03-04 02:53:00,26.9,16.4,30.07,West,275,0.0,12.0,64,0.00,,,0.00,VWS V14.01,2013-03-04 07:53:00,
2013-03-04 02:58:00,26.7,16.2,30.07,WSW,258,1.0,12.0,64,0.00,,,0.00,VWS V14.01,2013-03-04 07:58:00,
2013-03-04 03:03:00,26.7,16.5,30.07,WSW,252,0.0,12.0,65,0.00,,,0.00,VWS V14.01,2013-03-04 08:03:00,
2013-03-04 03:09:00,26.6,16.1,30.07,SW,225,0.0,12.0,64,0.00,,,0.00,VWS V14.01,2013-03-04 08:09:00,
2013-03-04 03:14:00,26.6,16.4,30.07,SW,224,0.0,12.0,65,0.00,,,0.00,VWS V14.01,2013-03-04 08:14:00,
2013-03-04 03:19:00,26.4,16.2,30.08,SW,225,0.0,12.0,65,0.00,,,0.00,VWS V14.01,2013-03-04 08:19:00,
2013-03-04 03:24:00,26.4,16.2,30.08,SW,225,0.0,12.0,65,0.00,,,0.00,VWS V14.01,2013-03-04 08:24:00,
2013-03-04 03:29:00,26.3,15.8,30.08,SW,224,0.0,12.0,64,0.00,,,0.00,VWS V14.01,2013-03-04 08:29:00,
2013-03-04 03:34:00,26.4,16.2,30.08,SW,224,0.0,12.0,65,0.00,,,0.00,VWS V14.01,2013-03-04 08:34:00,
2013-03-04 03:39:00,26.3,16.1,30.08,SW,224,0.0,12.0,65,0.00,,,0.00,VWS V14.01,2013-03-04 08:39:00,
2013-03-04 03:44:00,26.3,16.1,30.08,SW,225,0.0,12.0,65,0.00,,,0.00,VWS V14.01,2013-03-04 08:44:00,
2013-03-04 03:50:00,26.3,16.1,30.09,SW,225,0.0,12.0,65,0.00,,,0.00,VWS V14.01,2013-03-04 08:50:00,
2013-03-04 03:55:00,26.3,16.1,30.09,SW,225,0.0,12.0,65,0.00,,,0.00,VWS V14.01,2013-03-04 08:55:00,
2013-03-04 04:00:00,26.1,16.3,30.09,SW,225,0.0,12.0,66,0.00,,,0.00,VWS V14.01,2013-03-04 09:00:00,
2013-03-04 04:05:00,26.1,16.0,30.09,SW,225,0.0,12.0,65,0.00,,,0.00,VWS V14.01,2013-03-04 09:05:00,
2013-03-04 04:10:00,26.0,16.2,30.09,SW,225,0.0,12.0,66,0.00,,,0.00,VWS V14.01,2013-03-04 09:10:00,
2013-03-04 04:15:00,26.0,16.2,30.09,SW,225,0.0,12.0,66,0.00,,,0.00,VWS V14.01,2013-03-04 09:15:00,
2013-03-04 04:20:00,25.8,16.0,30.09,SW,225,0.0,12.0,66,0.00,,,0.00,VWS V14.01,2013-03-04 09:20:00,
2013-03-04 04:25:00,25.7,16.3,30.09,SW,225,0.0,12.0,67,0.00,,,0.00,VWS V14.01,2013-03-04 09:25:00,
2013-03-04 04:30:00,25.6,16.2,30.09,SW,225,0.0,12.0,67,0.00,,,0.00,VWS V14.01,2013-03-04 09:30:00,
2013-03-04 04:35:00,25.4,16.0,30.09,SW,225,0.0,12.0,67,0.00,,,0.00,VWS V14.01,2013-03-04 09:35:00,
2013-03-04 04:40:00,25.3,16.2,30.09,SW,225,0.0,12.0,68,0.00,,,0.00,VWS V14.01,2013-03-04 09:40:00,
2013-03-04 04:46:00,25.1,16.0,30.09,SW,225,0.0,12.0,68,0.00,,,0.00,VWS V14.01,2013-03-04 09:46:00,
2013-03-04 04:51:00,25.0,16.3,30.10,SW,225,0.0,12.0,69,0.00,,,0.00,VWS V14.01,2013-03-04 09:51:00,
2013-03-04 04:56:00,24.8,16.1,30.10,SW,225,0.0,12.0,69,0.00,,,0.00,VWS V14.01,2013-03-04 09:56:00,
2013-03-04 05:01:00,24.7,16.0,30.10,SW,225,0.0,12.0,69,0.00,,,0.00,VWS V14.01,2013-03-04 10:01:00,
2013-03-04 05:06:00,24.5,15.8,30.11,SW,225,0.0,12.0,69,0.00,,,0.00,VWS V14.01,2013-03-04 10:06:00,
2013-03-04 05:11:00,24.4,15.7,30.11,SW,225,0.0,12.0,69,0.00,,,0.00,VWS V14.01,2013-03-04 10:11:00,
2013-03-04 05:16:00,24.2,15.8,30.11,SW,225,0.0,12.0,70,0.00,,,0.00,VWS V14.01,2013-03-04 10:16:00,
2013-03-04 05:21:00,24.1,15.8,30.11,SW,225,0.0,12.0,70,0.00,,,0.00,VWS V14.01,2013-03-04 10:21:00,
2013-03-04 05:26:00,23.9,15.6,30.11,SW,225,0.0,12.0,70,0.00,,,0.00,VWS V14.01,2013-03-04 10:26:00,
2013-03-04 05:31:00,23.8,15.5,30.11,SW,225,0.0,12.0,70,0.00,,,0.00,VWS V14.01,2013-03-04 10:31:00,
2013-03-04 05:37:00,23.8,15.5,30.11,SW,225,0.0,12.0,70,0.00,,,0.00,VWS V14.01,2013-03-04 10:37:00,
2013-03-04 05:42:00,23.8,15.8,30.11,SW,225,0.0,12.0,71,0.00,,,0.00,VWS V14.01,2013-03-04 10:42:00,
2013-03-04 05:47:00,23.6,15.9,30.11,SW,225,0.0,12.0,72,0.00,,,0.00,VWS V14.01,2013-03-04 10:47:00,
2013-03-04 05:52:00,23.5,15.8,30.11,SW,225,0.0,12.0,72,0.00,,,0.00,VWS V14.01,2013-03-04 10:52:00,
2013-03-04 05:57:00,23.2,15.8,30.11,SW,225,0.0,12.0,73,0.00,,,0.00,VWS V14.01,2013-03-04 10:57:00,
2013-03-04 06:02:00,23.0,15.6,30.11,SW,225,0.0,12.0,73,0.00,,,0.00,VWS V14.01,2013-03-04 11:02:00,
2013-03-04 06:07:00,22.9,15.9,30.13,SW,225,0.0,12.0,74,0.00,,,0.00,VWS V14.01,2013-03-04 11:07:00,
2013-03-04 06:12:00,22.5,16.1,30.13,SW,225,0.0,12.0,76,0.00,,,0.00,VWS V14.01,2013-03-04 11:12:00,
2013-03-04 06:17:00,22.4,16.0,30.13,SW,225,0.0,12.0,76,0.00,,,0.00,VWS V14.01,2013-03-04 11:17:00,
2013-03-04 06:23:00,22.2,15.8,30.14,SW,225,0.0,12.0,76,0.00,,,0.00,VWS V14.01,2013-03-04 11:23:00,
2013-03-04 06:28:00,22.1,15.7,30.14,SW,225,1.0,12.0,76,0.00,,,0.00,VWS V14.01,2013-03-04 11:28:00,
2013-03-04 06:33:00,21.9,16.1,30.15,SW,225,0.0,12.0,78,0.00,,,0.00,VWS V14.01,2013-03-04 11:33:00,
2013-03-04 06:38:00,21.8,16.3,30.15,SW,225,0.0,12.0,79,0.00,,,0.00,VWS V14.01,2013-03-04 11:38:00,
2013-03-04 06:43:00,21.9,16.1,30.15,SW,225,0.0,12.0,78,0.00,,,0.00,VWS V14.01,2013-03-04 11:43:00,
2013-03-04 06:48:00,22.1,16.0,30.15,SW,225,0.0,12.0,77,0.00,,,0.00,VWS V14.01,2013-03-04 11:48:00,
2013-03-04 06:53:00,22.1,16.3,30.15,SW,225,0.0,12.0,78,0.00,,,0.00,VWS V14.01,2013-03-04 11:53:00,
2013-03-04 06:58:00,22.1,16.3,30.15,SW,225,0.0,12.0,78,0.00,,,0.00,VWS V14.01,2013-03-04 11:58:00,
2013-03-04 07:03:00,22.2,16.1,30.15,SW,225,0.0,12.0,77,0.00,,,0.00,VWS V14.01,2013-03-04 12:03:00,
2013-03-04 07:08:00,22.4,16.3,30.15,SW,225,0.0,12.0,77,0.00,,,0.00,VWS V14.01,2013-03-04 12:08:00,
2013-03-04 07:13:00,22.5,15.8,30.15,SW,225,0.0,12.0,75,0.00,,,0.00,VWS V14.01,2013-03-04 12:13:00,
2013-03-04 07:18:00,22.5,15.8,30.16,SW,225,0.0,12.0,75,0.00,,,0.00,VWS V14.01,2013-03-04 12:18:00,
2013-03-04 07:23:00,22.5,16.4,30.16,SW,225,0.0,12.0,77,0.00,,,0.00,VWS V14.01,2013-03-04 12:23:00,
2013-03-04 07:28:00,22.7,16.3,30.16,SW,225,0.0,12.0,76,0.00,,,0.00,VWS V14.01,2013-03-04 12:28:00,
2013-03-04 07:34:00,22.7,16.6,30.17,SW,225,0.0,12.0,77,0.00,,,0.00,VWS V14.01,2013-03-04 12:34:00,
2013-03-04 07:39:00,22.7,16.6,30.17,SW,225,0.0,12.0,77,0.00,,,0.00,VWS V14.01,2013-03-04 12:39:00,
2013-03-04 07:44:00,22.4,16.6,30.17,SW,225,0.0,12.0,78,0.00,,,0.00,VWS V14.01,2013-03-04 12:44:00,
2013-03-04 07:49:00,22.2,16.7,30.17,SW,225,0.0,12.0,79,0.00,,,0.00,VWS V14.01,2013-03-04 12:49:00,
2013-03-04 07:54:00,22.4,16.9,30.17,SW,225,0.0,12.0,79,0.00,,,0.00,VWS V14.01,2013-03-04 12:54:00,
2013-03-04 07:59:00,22.7,16.9,30.17,SW,225,0.0,12.0,78,0.00,,,0.00,VWS V14.01,2013-03-04 12:59:00,
2013-03-04 08:04:00,23.0,16.9,30.17,SW,222,0.0,12.0,77,0.00,,,0.00,VWS V14.01,2013-03-04 13:04:00,
2013-03-04 08:09:00,23.3,16.9,30.17,SW,222,0.0,12.0,76,0.00,,,0.00,VWS V14.01,2013-03-04 13:09:00,
2013-03-04 08:14:00,23.6,16.5,30.17,SW,222,0.0,12.0,74,0.00,,,0.00,VWS V14.01,2013-03-04 13:14:00,
2013-03-04 08:19:00,23.9,16.5,30.17,SW,222,0.0,12.0,73,0.00,,,0.00,VWS V14.01,2013-03-04 13:19:00,
2013-03-04 08:24:00,24.4,17.0,30.17,SW,222,0.0,12.0,73,0.00,,,0.00,VWS V14.01,2013-03-04 13:24:00,
2013-03-04 08:29:00,24.8,16.4,30.17,NW,305,0.0,12.0,70,0.00,,,0.00,VWS V14.01,2013-03-04 13:29:00,
2013-03-04 08:34:00,25.3,16.6,30.16,NW,305,0.0,12.0,69,0.00,,,0.00,VWS V14.01,2013-03-04 13:34:00,
2013-03-04 08:39:00,25.7,15.9,30.16,NW,304,0.0,12.0,66,0.00,,,0.00,VWS V14.01,2013-03-04 13:39:00,
2013-03-04 08:44:00,26.3,16.1,30.16,WSW,252,0.0,12.0,65,0.00,,,0.00,VWS V14.01,2013-03-04 13:44:00,
2013-03-04 08:50:00,26.6,16.4,30.16,WSW,252,0.0,12.0,65,0.00,,,0.00,VWS V14.01,2013-03-04 13:50:00,
2013-03-04 08:55:00,26.9,16.4,30.16,WSW,252,0.0,12.0,64,0.00,,,0.00,VWS V14.01,2013-03-04 13:55:00,
2013-03-04 09:00:00,26.9,16.7,30.16,WSW,252,1.0,12.0,65,0.00,,,0.00,VWS V14.01,2013-03-04 14:00:00,
2013-03-04 09:05:00,26.9,16.7,30.16,WSW,252,1.0,12.0,65,0.00,,,0.00,VWS V14.01,2013-03-04 14:05:00,
2013-03-04 09:10:00,27.0,17.2,30.16,WSW,252,1.0,12.0,66,0.00,,,0.00,VWS V14.01,2013-03-04 14:10:00,
2013-03-04 09:15:00,27.5,16.6,30.16,WSW,252,1.0,12.0,63,0.00,,,0.00,VWS V14.01,2013-03-04 14:15:00,
2013-03-04 09:20:00,28.1,17.1,30.16,WSW,252,1.0,12.0,63,0.00,,,0.00,VWS V14.01,2013-03-04 14:20:00,
2013-03-04 09:25:00,28.5,17.1,30.16,WSW,252,0.0,12.0,62,0.00,,,0.00,VWS V14.01,2013-03-04 14:25:00,
2013-03-04 09:30:00,29.0,16.5,30.16,WSW,252,0.0,12.0,59,0.00,,,0.00,VWS V14.01,2013-03-04 14:30:00,
2013-03-04 09:35:00,29.7,16.4,30.15,WSW,252,0.0,12.0,57,0.00,,,0.00,VWS V14.01,2013-03-04 14:35:00,
2013-03-04 09:40:00,30.4,16.2,30.15,WSW,252,1.0,12.0,55,0.00,,,0.00,VWS V14.01,2013-03-04 14:40:00,
2013-03-04 09:45:00,31.3,17.0,30.15,NE,39,2.0,12.0,55,0.00,,,0.00,VWS V14.01,2013-03-04 14:45:00,
2013-03-04 09:50:00,31.8,16.2,30.15,NE,54,2.0,12.0,52,0.00,,,0.00,VWS V14.01,2013-03-04 14:50:00,
2013-03-04 09:55:00,31.8,16.2,30.15,NE,36,0.0,12.0,52,0.00,,,0.00,VWS V14.01,2013-03-04 14:55:00,
2013-03-04 10:00:00,32.1,16.0,30.15,WNW,294,0.0,12.0,51,0.00,,,0.00,VWS V14.01,2013-03-04 15:00:00,
2013-03-04 10:06:00,32.5,15.9,30.15,WNW,294,0.0,12.0,50,0.00,,,0.00,VWS V14.01,2013-03-04 15:06:00,
2013-03-04 10:11:00,33.1,16.0,30.15,WNW,286,2.0,12.0,49,0.00,,,0.00,VWS V14.01,2013-03-04 15:11:00,
2013-03-04 10:16:00,33.2,15.6,30.15,West,267,1.0,12.0,48,0.00,,,0.00,VWS V14.01,2013-03-04 15:16:00,
2013-03-04 10:21:00,33.1,14.6,30.15,West,263,2.0,12.0,46,0.00,,,0.00,VWS V14.01,2013-03-04 15:21:00,
2013-03-04 10:26:00,33.5,13.9,30.15,NNW,346,2.0,12.0,44,0.00,,,0.00,VWS V14.01,2013-03-04 15:26:00,
2013-03-04 10:31:00,33.5,14.4,30.15,NW,319,1.0,12.0,45,0.00,,,0.00,VWS V14.01,2013-03-04 15:31:00,
2013-03-04 10:36:00,33.5,14.9,30.13,WNW,283,4.0,12.0,46,0.00,,,0.00,VWS V14.01,2013-03-04 15:36:00,
2013-03-04 10:41:00,33.7,14.1,30.13,WSW,250,1.0,12.0,44,0.00,,,0.00,VWS V14.01,2013-03-04 15:41:00,
2013-03-04 10:46:00,33.7,14.1,30.13,WSW,248,0.0,12.0,44,0.00,,,0.00,VWS V14.01,2013-03-04 15:46:00,
2013-03-04 10:51:00,33.8,14.2,30.13,NNW,342,2.0,12.0,44,0.00,,,0.00,VWS V14.01,2013-03-04 15:51:00,
2013-03-04 10:57:00,34.6,15.5,30.13,WNW,298,1.0,12.0,45,0.00,,,0.00,VWS V14.01,2013-03-04 15:57:00,
2013-03-04 11:02:00,35.3,14.5,30.13,West,279,1.0,12.0,42,0.00,,,0.00,VWS V14.01,2013-03-04 16:02:00,
2013-03-04 11:07:00,35.6,14.2,30.13,NNE,16,1.0,12.0,41,0.00,,,0.00,VWS V14.01,2013-03-04 16:07:00,
2013-03-04 11:12:00,35.9,17.1,30.13,West,267,1.0,12.0,46,0.00,,,0.00,VWS V14.01,2013-03-04 16:12:00,
2013-03-04 11:17:00,36.6,15.7,30.13,West,270,3.0,12.0,42,0.00,,,0.00,VWS V14.01,2013-03-04 16:17:00,
2013-03-04 11:22:00,37.3,15.8,30.12,West,275,2.0,12.0,41,0.00,,,0.00,VWS V14.01,2013-03-04 16:22:00,
2013-03-04 11:27:00,37.8,15.7,30.12,WNW,302,2.0,12.0,40,0.00,,,0.00,VWS V14.01,2013-03-04 16:27:00,
2013-03-04 11:32:00,37.9,15.2,30.12,WNW,287,2.0,12.0,39,0.00,,,0.00,VWS V14.01,2013-03-04 16:32:00,
2013-03-04 11:37:00,38.5,15.1,30.12,West,277,3.0,12.0,38,0.00,,,0.00,VWS V14.01,2013-03-04 16:37:00,
2013-03-04 11:42:00,39.5,14.8,30.12,WNW,302,1.0,12.0,36,0.00,,,0.00,VWS V14.01,2013-03-04 16:42:00,
2013-03-04 11:47:00,39.9,14.5,30.12,NNW,329,2.0,12.0,35,0.00,,,0.00,VWS V14.01,2013-03-04 16:47:00,
2013-03-04 11:52:00,39.9,14.5,30.11,NE,40,2.0,12.0,35,0.00,,,0.00,VWS V14.01,2013-03-04 16:52:00,
2013-03-04 11:58:00,39.5,13.5,30.11,North,360,2.0,12.0,34,0.00,,,0.00,VWS V14.01,2013-03-04 16:58:00,
2013-03-04 12:03:00,39.9,14.5,30.10,West,271,4.0,12.0,35,0.00,,,0.00,VWS V14.01,2013-03-04 17:03:00,
2013-03-04 12:08:00,40.5,16.3,30.10,NW,311,3.0,12.0,37,0.00,,,0.00,VWS V14.01,2013-03-04 17:08:00,
2013-03-04 12:13:00,41.2,13.6,30.10,WNW,298,1.0,12.0,32,0.00,,,0.00,VWS V14.01,2013-03-04 17:13:00,
2013-03-04 12:18:00,41.6,14.6,30.10,WNW,292,5.0,12.0,33,0.00,,,0.00,VWS V14.01,2013-03-04 17:18:00,
2013-03-04 12:23:00,42.2,13.8,30.10,West,281,2.0,12.0,31,0.00,,,0.00,VWS V14.01,2013-03-04 17:23:00,
2013-03-04 12:28:00,42.6,14.1,30.10,NNW,348,2.0,12.0,31,0.00,,,0.00,VWS V14.01,2013-03-04 17:28:00,
2013-03-04 12:33:00,42.6,14.8,30.09,WNW,294,2.0,12.0,32,0.00,,,0.00,VWS V14.01,2013-03-04 17:33:00,
2013-03-04 12:38:00,42.6,14.8,30.09,NW,309,2.0,12.0,32,0.00,,,0.00,VWS V14.01,2013-03-04 17:38:00,
2013-03-04 12:43:00,43.1,13.8,30.09,WNW,302,3.0,12.0,30,0.00,,,0.00,VWS V14.01,2013-03-04 17:43:00,
2013-03-04 12:48:00,43.1,14.5,30.08,NNW,344,0.0,12.0,31,0.00,,,0.00,VWS V14.01,2013-03-04 17:48:00,
2013-03-04 12:53:00,43.2,14.6,30.08,NW,307,0.0,12.0,31,0.00,,,0.00,VWS V14.01,2013-03-04 17:53:00,
2013-03-04 12:58:00,43.9,12.9,30.08,WNW,294,3.0,12.0,28,0.00,,,0.00,VWS V14.01,2013-03-04 17:58:00,
2013-03-04 13:03:00,45.1,14.0,30.07,WNW,295,2.0,12.0,28,0.00,,,0.00,VWS V14.01,2013-03-04 18:03:00,
2013-03-04 13:08:00,45.7,14.5,30.07,WNW,292,4.0,12.0,28,0.00,,,0.00,VWS V14.01,2013-03-04 18:08:00,
2013-03-04 13:13:00,45.2,14.9,30.07,NE,45,1.0,12.0,29,0.00,,,0.00,VWS V14.01,2013-03-04 18:13:00,
2013-03-04 13:19:00,43.6,14.2,30.06,SE,126,1.0,12.0,30,0.00,,,0.00,VWS V14.01,2013-03-04 18:19:00,
2013-03-04 13:24:00,43.2,13.9,30.06,West,277,3.0,12.0,30,0.00,,,0.00,VWS V14.01,2013-03-04 18:24:00,
2013-03-04 13:30:00,44.9,13.0,30.06,WNW,286,2.0,12.0,27,0.00,,,0.00,VWS V14.01,2013-03-04 18:30:00,
2013-03-04 13:31:00,45.2,14.1,30.06,West,281,1.0,12.0,28,0.00,,,0.00,VWS V14.01,2013-03-04 18:31:00,
2013-03-04 13:32:00,45.2,14.1,30.06,WSW,256,0.0,12.0,28,0.00,,,0.00,VWS V14.01,2013-03-04 18:32:00,
2013-03-04 13:37:00,45.7,11.0,30.05,West,279,1.0,12.0,24,0.00,,,0.00,VWS V14.01,2013-03-04 18:37:00,
2013-03-04 13:42:00,46.0,12.2,30.05,NW,311,2.0,12.0,25,0.00,,,0.00,VWS V14.01,2013-03-04 18:42:00,
2013-03-04 13:47:00,46.4,10.6,30.05,NNW,337,0.0,12.0,23,0.00,,,0.00,VWS V14.01,2013-03-04 18:47:00,
2013-03-04 13:52:00,46.8,11.9,30.04,NW,316,0.0,12.0,24,0.00,,,0.00,VWS V14.01,2013-03-04 18:52:00,
2013-03-04 13:57:00,46.7,13.6,30.04,NNW,344,3.0,12.0,26,0.00,,,0.00,VWS V14.01,2013-03-04 18:57:00,
2013-03-04 14:02:00,46.4,13.4,30.04,NW,310,0.0,12.0,26,0.00,,,0.00,VWS V14.01,2013-03-04 19:02:00,
2013-03-04 14:07:00,46.1,14.0,30.03,NW,305,0.0,12.0,27,0.00,,,0.00,VWS V14.01,2013-03-04 19:07:00,
2013-03-04 14:12:00,45.8,13.7,30.03,SSW,196,1.0,12.0,27,0.00,,,0.00,VWS V14.01,2013-03-04 19:12:00,
2013-03-04 14:18:00,46.1,14.0,30.03,WNW,293,4.0,12.0,27,0.00,,,0.00,VWS V14.01,2013-03-04 19:18:00,
2013-03-04 14:23:00,46.4,14.2,30.03,NNW,336,1.0,12.0,27,0.00,,,0.00,VWS V14.01,2013-03-04 19:23:00,
2013-03-04 14:28:00,46.1,14.8,30.03,ENE,78,3.0,12.0,28,0.00,,,0.00,VWS V14.01,2013-03-04 19:28:00,
2013-03-04 14:33:00,46.0,14.7,30.02,WNW,301,1.0,12.0,28,0.00,,,0.00,VWS V14.01,2013-03-04 19:33:00,
2013-03-04 14:38:00,46.5,15.2,30.02,SE,130,0.0,12.0,28,0.00,,,0.00,VWS V14.01,2013-03-04 19:38:00,
2013-03-04 14:43:00,46.7,15.3,30.02,NW,321,2.0,12.0,28,0.00,,,0.00,VWS V14.01,2013-03-04 19:43:00,
2013-03-04 14:48:00,47.7,16.2,30.02,WSW,252,0.0,12.0,28,0.00,,,0.00,VWS V14.01,2013-03-04 19:48:00,
2013-03-04 14:53:00,47.4,15.1,30.02,WNW,295,1.0,12.0,27,0.00,,,0.00,VWS V14.01,2013-03-04 19:53:00,
2013-03-04 14:58:00,47.7,15.4,30.02,WSW,247,2.0,12.0,27,0.00,,,0.00,VWS V14.01,2013-03-04 19:58:00,
2013-03-04 15:03:00,47.7,16.2,30.01,North,350,1.0,12.0,28,0.00,,,0.00,VWS V14.01,2013-03-04 20:03:00,
2013-03-04 15:09:00,47.4,15.1,30.01,NW,307,4.0,12.0,27,0.00,,,0.00,VWS V14.01,2013-03-04 20:09:00,
2013-03-04 15:14:00,47.3,15.9,30.01,ENE,76,0.0,12.0,28,0.00,,,0.00,VWS V14.01,2013-03-04 20:14:00,
2013-03-04 15:19:00,47.9,15.6,30.02,NNW,335,2.0,12.0,27,0.00,,,0.00,VWS V14.01,2013-03-04 20:19:00,
2013-03-04 15:24:00,48.6,17.8,30.02,NNW,335,0.0,12.0,29,0.00,,,0.00,VWS V14.01,2013-03-04 20:24:00,
2013-03-04 15:29:00,48.6,15.3,30.02,West,268,2.0,12.0,26,0.00,,,0.00,VWS V14.01,2013-03-04 20:29:00,
2013-03-04 15:34:00,47.4,15.9,30.01,ENE,78,2.0,12.0,28,0.00,,,0.00,VWS V14.01,2013-03-04 20:34:00,
2013-03-04 15:39:00,46.8,17.0,30.01,NW,314,1.0,12.0,30,0.00,,,0.00,VWS V14.01,2013-03-04 20:39:00,
2013-03-04 15:44:00,47.6,16.1,30.01,East,91,0.0,12.0,28,0.00,,,0.00,VWS V14.01,2013-03-04 20:44:00,
2013-03-04 15:49:00,47.6,16.1,30.01,SW,225,3.0,12.0,28,0.00,,,0.00,VWS V14.01,2013-03-04 20:49:00,
2013-03-04 15:54:00,47.7,15.4,30.01,West,261,3.0,12.0,27,0.00,,,0.00,VWS V14.01,2013-03-04 20:54:00,
2013-03-04 15:59:00,48.0,16.5,30.01,West,269,2.0,12.0,28,0.00,,,0.00,VWS V14.01,2013-03-04 20:59:00,
2013-03-04 16:04:00,48.2,16.6,30.01,NE,54,2.0,12.0,28,0.00,,,0.00,VWS V14.01,2013-03-04 21:04:00,
2013-03-04 16:09:00,48.3,16.7,30.01,WSW,255,2.0,12.0,28,0.00,,,0.00,VWS V14.01,2013-03-04 21:09:00,
2013-03-04 16:14:00,48.8,18.8,30.01,NW,306,4.0,12.0,30,0.00,,,0.00,VWS V14.01,2013-03-04 21:14:00,
2013-03-04 16:19:00,48.5,17.7,30.01,WNW,298,1.0,12.0,29,0.00,,,0.00,VWS V14.01,2013-03-04 21:19:00,
2013-03-04 16:24:00,48.5,17.7,30.01,NW,323,2.0,12.0,29,0.00,,,0.00,VWS V14.01,2013-03-04 21:24:00,
2013-03-04 16:29:00,48.0,17.3,30.01,WNW,292,3.0,12.0,29,0.00,,,0.00,VWS V14.01,2013-03-04 21:29:00,
2013-03-04 16:34:00,47.7,17.0,30.01,WSW,254,2.0,12.0,29,0.00,,,0.00,VWS V14.01,2013-03-04 21:34:00,
2013-03-04 16:39:00,47.3,18.2,30.01,South,186,1.0,12.0,31,0.00,,,0.00,VWS V14.01,2013-03-04 21:39:00,
2013-03-04 16:44:00,46.5,17.5,30.01,South,186,0.0,12.0,31,0.00,,,0.00,VWS V14.01,2013-03-04 21:44:00,
2013-03-04 16:49:00,46.5,17.5,30.01,WNW,294,0.0,12.0,31,0.00,,,0.00,VWS V14.01,2013-03-04 21:49:00,
2013-03-04 16:54:00,46.5,17.5,30.01,WSW,254,3.0,12.0,31,0.00,,,0.00,VWS V14.01,2013-03-04 21:54:00,
2013-03-04 16:59:00,46.2,18.0,30.01,WSW,254,0.0,12.0,32,0.00,,,0.00,VWS V14.01,2013-03-04 21:59:00,
2013-03-04 17:05:00,46.0,21.2,30.02,WNW,297,1.0,12.0,37,0.00,,,0.00,VWS V14.01,2013-03-04 22:05:00,
2013-03-04 17:10:00,45.7,20.3,30.02,WNW,297,1.0,12.0,36,0.00,,,0.00,VWS V14.01,2013-03-04 22:10:00,
2013-03-04 17:15:00,45.4,18.7,30.02,WSW,245,0.0,12.0,34,0.00,,,0.00,VWS V14.01,2013-03-04 22:15:00,
2013-03-04 17:20:00,45.2,18.5,30.03,NW,306,0.0,12.0,34,0.00,,,0.00,VWS V14.01,2013-03-04 22:20:00,
2013-03-04 17:25:00,44.9,18.2,30.03,NW,304,1.0,12.0,34,0.00,,,0.00,VWS V14.01,2013-03-04 22:25:00,
2013-03-04 17:30:00,44.8,18.8,30.03,NW,304,0.0,12.0,35,0.00,,,0.00,VWS V14.01,2013-03-04 22:30:00,
2013-03-04 17:35:00,44.6,21.2,30.03,NW,304,0.0,12.0,39,0.00,,,0.00,VWS V14.01,2013-03-04 22:35:00,
2013-03-04 17:40:00,44.3,17.0,30.03,SSE,157,0.0,12.0,33,0.00,,,0.00,VWS V14.01,2013-03-04 22:40:00,
2013-03-04 17:45:00,44.2,16.9,30.03,WSW,252,0.0,12.0,33,0.00,,,0.00,VWS V14.01,2013-03-04 22:45:00,
2013-03-04 17:50:00,44.1,16.9,30.03,WSW,252,0.0,12.0,33,0.00,,,0.00,VWS V14.01,2013-03-04 22:50:00,
2013-03-04 17:55:00,43.9,18.0,30.03,WSW,252,0.0,12.0,35,0.00,,,0.00,VWS V14.01,2013-03-04 22:55:00,
2013-03-04 18:00:00,43.8,19.2,30.03,WSW,252,0.0,12.0,37,0.00,,,0.00,VWS V14.01,2013-03-04 23:00:00,
2013-03-04 18:06:00,43.6,17.1,30.03,WSW,252,0.0,12.0,34,0.00,,,0.00,VWS V14.01,2013-03-04 23:06:00,
2013-03-04 18:11:00,43.5,21.4,30.03,WSW,252,0.0,12.0,41,0.00,,,0.00,VWS V14.01,2013-03-04 23:11:00,
2013-03-04 18:16:00,43.3,21.8,30.03,WSW,252,0.0,12.0,42,0.00,,,0.00,VWS V14.01,2013-03-04 23:16:00,
2013-03-04 18:21:00,43.2,19.3,30.03,WSW,252,0.0,12.0,38,0.00,,,0.00,VWS V14.01,2013-03-04 23:21:00,
2013-03-04 18:26:00,42.9,22.5,30.03,WSW,252,0.0,12.0,44,0.00,,,0.00,VWS V14.01,2013-03-04 23:26:00,
2013-03-04 18:31:00,42.5,21.0,30.03,WSW,252,0.0,12.0,42,0.00,,,0.00,VWS V14.01,2013-03-04 23:31:00,
2013-03-04 18:36:00,42.3,20.9,30.03,WSW,252,0.0,12.0,42,0.00,,,0.00,VWS V14.01,2013-03-04 23:36:00,
2013-03-04 18:41:00,42.5,22.7,30.03,WSW,252,0.0,12.0,45,0.00,,,0.00,VWS V14.01,2013-03-04 23:41:00,
2013-03-04 18:46:00,42.8,25.5,30.03,WSW,252,0.0,12.0,50,0.00,,,0.00,VWS V14.01,2013-03-04 23:46:00,
2013-03-04 18:51:00,42.6,24.3,30.03,WSW,252,0.0,12.0,48,0.00,,,0.00,VWS V14.01,2013-03-04 23:51:00,
2013-03-04 18:56:00,42.2,22.9,30.03,WSW,252,0.0,12.0,46,0.00,,,0.00,VWS V14.01,2013-03-04 23:56:00,
2013-03-04 19:02:00,42.1,22.8,30.03,WSW,252,0.0,12.0,46,0.00,,,0.00,VWS V14.01,2013-03-05 00:02:00,
2013-03-04 19:07:00,41.6,23.4,30.04,WSW,252,0.0,12.0,48,0.00,,,0.00,VWS V14.01,2013-03-05 00:07:00,
2013-03-04 19:12:00,41.2,22.0,30.04,WSW,252,0.0,12.0,46,0.00,,,0.00,VWS V14.01,2013-03-05 00:12:00,
2013-03-04 19:17:00,41.1,21.9,30.04,WSW,252,0.0,12.0,46,0.00,,,0.00,VWS V14.01,2013-03-05 00:17:00,
2013-03-04 19:22:00,41.1,23.9,30.03,WSW,252,0.0,12.0,50,0.00,,,0.00,VWS V14.01,2013-03-05 00:22:00,
2013-03-04 19:27:00,40.9,22.7,30.03,WSW,252,0.0,12.0,48,0.00,,,0.00,VWS V14.01,2013-03-05 00:27:00,
2013-03-04 19:32:00,40.9,23.2,30.03,WSW,252,0.0,12.0,49,0.00,,,0.00,VWS V14.01,2013-03-05 00:32:00,
2013-03-04 19:37:00,41.1,25.7,30.03,WSW,252,0.0,12.0,54,0.00,,,0.00,VWS V14.01,2013-03-05 00:37:00,
2013-03-04 19:42:00,40.8,25.5,30.03,WSW,252,0.0,12.0,54,0.00,,,0.00,VWS V14.01,2013-03-05 00:42:00,
2013-03-04 19:47:00,40.3,25.0,30.03,WSW,252,0.0,12.0,54,0.00,,,0.00,VWS V14.01,2013-03-05 00:47:00,
2013-03-04 19:52:00,39.9,23.3,30.04,WSW,252,0.0,12.0,51,0.00,,,0.00,VWS V14.01,2013-03-05 00:52:00,
2013-03-04 19:57:00,39.5,22.9,30.04,WSW,252,0.0,12.0,51,0.00,,,0.00,VWS V14.01,2013-03-05 00:57:00,
2013-03-04 20:03:00,38.9,20.9,30.04,WSW,252,0.0,12.0,48,0.00,,,0.00,VWS V14.01,2013-03-05 01:03:00,
2013-03-04 20:08:00,38.5,19.5,30.04,WSW,252,0.0,12.0,46,0.00,,,0.00,VWS V14.01,2013-03-05 01:08:00,
2013-03-04 20:13:00,38.2,19.3,30.04,WSW,252,0.0,12.0,46,0.00,,,0.00,VWS V14.01,2013-03-05 01:13:00,
2013-03-04 20:18:00,38.0,20.1,30.03,WSW,252,0.0,12.0,48,0.00,,,0.00,VWS V14.01,2013-03-05 01:18:00,
2013-03-04 20:23:00,37.9,20.5,30.03,WSW,252,0.0,12.0,49,0.00,,,0.00,VWS V14.01,2013-03-05 01:23:00,
2013-03-04 20:28:00,37.6,21.6,30.03,WSW,252,0.0,12.0,52,0.00,,,0.00,VWS V14.01,2013-03-05 01:28:00,
2013-03-04 20:33:00,37.2,20.8,30.02,WSW,252,0.0,12.0,51,0.00,,,0.00,VWS V14.01,2013-03-05 01:33:00,
2013-03-04 20:38:00,36.9,20.5,30.02,WSW,252,0.0,12.0,51,0.00,,,0.00,VWS V14.01,2013-03-05 01:38:00,
2013-03-04 20:44:00,36.6,21.1,30.02,WSW,252,0.0,12.0,53,0.00,,,0.00,VWS V14.01,2013-03-05 01:44:00,
2013-03-04 20:49:00,36.6,22.4,30.02,WSW,252,0.0,12.0,56,0.00,,,0.00,VWS V14.01,2013-03-05 01:49:00,
2013-03-04 20:54:00,36.3,20.8,30.02,WSW,252,0.0,12.0,53,0.00,,,0.00,VWS V14.01,2013-03-05 01:54:00,
2013-03-04 20:59:00,36.2,19.8,30.02,WSW,252,0.0,12.0,51,0.00,,,0.00,VWS V14.01,2013-03-05 01:59:00,
2013-03-04 21:04:00,35.9,20.9,30.02,WSW,252,0.0,12.0,54,0.00,,,0.00,VWS V14.01,2013-03-05 02:04:00,
2013-03-04 21:09:00,35.6,19.3,30.02,WSW,252,0.0,12.0,51,0.00,,,0.00,VWS V14.01,2013-03-05 02:09:00,
2013-03-04 21:14:00,35.5,20.5,30.02,WSW,252,0.0,12.0,54,0.00,,,0.00,VWS V14.01,2013-03-05 02:14:00,
2013-03-04 21:19:00,35.5,20.5,30.00,WSW,252,1.0,12.0,54,0.00,,,0.00,VWS V14.01,2013-03-05 02:19:00,
2013-03-04 21:24:00,35.8,24.1,30.00,WSW,252,1.0,12.0,62,0.00,,,0.00,VWS V14.01,2013-03-05 02:24:00,
2013-03-04 21:30:00,35.6,23.1,30.00,WSW,252,0.0,12.0,60,0.00,,,0.00,VWS V14.01,2013-03-05 02:30:00,
2013-03-04 21:35:00,35.6,21.9,30.01,WSW,252,0.0,12.0,57,0.00,,,0.00,VWS V14.01,2013-03-05 02:35:00,
2013-03-04 21:40:00,35.5,21.8,30.01,WSW,252,0.0,12.0,57,0.00,,,0.00,VWS V14.01,2013-03-05 02:40:00,
2013-03-04 21:45:00,35.5,21.0,30.01,WSW,252,0.0,12.0,55,0.00,,,0.00,VWS V14.01,2013-03-05 02:45:00,
2013-03-04 21:50:00,35.6,21.5,30.01,WSW,252,2.0,12.0,56,0.00,,,0.00,VWS V14.01,2013-03-05 02:50:00,
2013-03-04 21:55:00,35.8,21.2,30.01,WSW,252,0.0,12.0,55,0.00,,,0.00,VWS V14.01,2013-03-05 02:55:00,
2013-03-04 22:00:00,35.9,23.0,30.01,WSW,252,0.0,12.0,59,0.00,,,0.00,VWS V14.01,2013-03-05 03:00:00,
2013-03-04 22:06:00,36.0,22.3,30.01,WSW,252,0.0,12.0,57,0.00,,,0.00,VWS V14.01,2013-03-05 03:06:00,
2013-03-04 22:11:00,36.0,22.3,30.01,WSW,252,1.0,12.0,57,0.00,,,0.00,VWS V14.01,2013-03-05 03:11:00,
2013-03-04 22:16:00,36.0,22.3,30.01,WSW,252,0.0,12.0,57,0.00,,,0.00,VWS V14.01,2013-03-05 03:16:00,
2013-03-04 22:21:00,36.0,21.4,30.00,WSW,252,0.0,12.0,55,0.00,,,0.00,VWS V14.01,2013-03-05 03:21:00,
2013-03-04 22:26:00,36.3,22.1,30.00,WSW,252,0.0,12.0,56,0.00,,,0.00,VWS V14.01,2013-03-05 03:26:00,
2013-03-04 22:31:00,36.5,22.7,30.00,WSW,252,0.0,12.0,57,0.00,,,0.00,VWS V14.01,2013-03-05 03:31:00,
2013-03-04 22:36:00,36.5,22.7,30.00,WSW,252,0.0,12.0,57,0.00,,,0.00,VWS V14.01,2013-03-05 03:36:00,
2013-03-04 22:42:00,36.6,21.5,30.00,WSW,252,0.0,12.0,54,0.00,,,0.00,VWS V14.01,2013-03-05 03:42:00,
2013-03-04 22:47:00,36.6,22.0,30.00,WSW,252,0.0,12.0,55,0.00,,,0.00,VWS V14.01,2013-03-05 03:47:00,
2013-03-04 22:52:00,36.8,23.0,30.00,WSW,252,0.0,12.0,57,0.00,,,0.00,VWS V14.01,2013-03-05 03:52:00,
2013-03-04 22:57:00,36.9,23.5,30.00,WSW,252,0.0,12.0,58,0.00,,,0.00,VWS V14.01,2013-03-05 03:57:00,
2013-03-04 23:02:00,36.9,24.7,30.00,WSW,252,0.0,12.0,61,0.00,,,0.00,VWS V14.01,2013-03-05 04:02:00,
2013-03-04 23:07:00,36.9,23.5,30.00,WSW,252,0.0,12.0,58,0.00,,,0.00,VWS V14.01,2013-03-05 04:07:00,
2013-03-04 23:12:00,36.9,23.9,30.00,WSW,252,0.0,12.0,59,0.00,,,0.00,VWS V14.01,2013-03-05 04:12:00,
2013-03-04 23:17:00,36.9,23.5,30.00,WSW,252,0.0,12.0,58,0.00,,,0.00,VWS V14.01,2013-03-05 04:17:00,
2013-03-04 23:22:00,36.8,23.0,29.99,WSW,252,0.0,12.0,57,0.00,,,0.00,VWS V14.01,2013-03-05 04:22:00,
2013-03-04 23:27:00,36.6,22.8,29.99,WSW,252,0.0,12.0,57,0.00,,,0.00,VWS V14.01,2013-03-05 04:27:00,
2013-03-04 23:32:00,36.6,24.8,29.99,WSW,252,1.0,12.0,62,0.00,,,0.00,VWS V14.01,2013-03-05 04:32:00,
2013-03-04 23:38:00,36.8,24.6,29.98,WSW,252,0.0,12.0,61,0.00,,,0.00,VWS V14.01,2013-03-05 04:38:00,
2013-03-04 23:43:00,36.8,23.0,29.98,WSW,252,0.0,12.0,57,0.00,,,0.00,VWS V14.01,2013-03-05 04:43:00,
2013-03-04 23:48:00,37.0,22.4,29.98,WSW,252,0.0,12.0,55,0.00,,,0.00,VWS V14.01,2013-03-05 04:48:00,
2013-03-04 23:53:00,37.3,24.7,29.98,WSW,252,0.0,12.0,60,0.00,,,0.00,VWS V14.01,2013-03-05 04:53:00,
2013-03-04 23:58:00,37.6,25.4,29.98,WSW,252,2.0,12.0,61,0.00,,,0.00,VWS V14.01,2013-03-05 04:58:00,